Gage, OK

3:21 AM CST on November 22, 2017 (GMT -0600)
Gage

Weather History for KGAG - August, 2014

Change the Weather History Date:

Monday, August 18, 2014

  Actual Average Record
Temperature  
Mean Temperature 85 °F -  
Max Temperature 102 °F 91 °F 106 °F (2011)
Min Temperature 70 °F 66 °F 56 °F (1981)
Cooling Degree Days 20    
Growing Degree Days 35 (Base 50)    
Moisture  
Dew Point 58 °F    
Average Humidity 45    
Maximum Humidity 84    
Minimum Humidity 19    
Precipitation  
Precipitation 0.00 in - - ()
Sea Level Pressure  
Sea Level Pressure 29.83 in    
Wind  
Wind Speed 11 mph (SSW)    
Max Wind Speed 28 mph    
Max Gust Speed 41 mph    
Visibility 10 miles    
Events      
Averages and records for this station are not official NWS values.
T = Trace of Precipitation, MM = Missing Value Source: NWS Daily Summary

Daily Weather History Graph

Daily Weather History Graph

Search for Another Location

Airport or City:

Trip Planner

Search our weather history database for the weather conditions in past years. The results will help you decide how hot, cold, wet, or windy it might be!

Date:

Astronomy

Aug. 18, 2014 Rise Set
Actual Time 6:59 AM CDT 8:25 PM CDT
Civil Twilight 6:32 AM CDT 8:52 PM CDT
Nautical Twilight 5:59 AM CDT 9:25 PM CDT
Astronomical Twilight 5:25 AM CDT 9:59 PM CDT
Moon 1:10 AM CDT (8/18) 3:27 PM CDT (8/18)
Length of Visible Light 14h 20m
Length of Day
13h 26m
Last Quarter, 38% of the Moon is Illuminated
Aug 18
Last Quarter
Aug 25
New
Sep 2
First Quarter
Sep 8
Full
Sep 15
Last Quarter

Hourly Weather History & Observations

Time (CDT) Temp. Heat Index Dew Point Humidity Pressure Visibility Wind Dir Wind Speed Gust Speed Precip Events Conditions
12:53 AM 77.0 °F - 59.0 °F 54% 29.84 in 10.0 mi South 10.4 mph - N/A   Clear
1:53 AM 75.2 °F - 59.0 °F 57% 29.93 in 10.0 mi South 9.2 mph - N/A   Clear
2:53 AM 75.9 °F - 60.1 °F 58% 29.82 in 10.0 mi South 10.4 mph - N/A   Clear
3:53 AM 71.1 °F - 60.1 °F 68% 29.83 in 10.0 mi WSW 3.5 mph - N/A   Clear
4:53 AM 73.0 °F - 61.0 °F 66% 29.88 in 10.0 mi NNE 8.1 mph - N/A   Clear
5:53 AM 70.0 °F - 63.0 °F 78% 29.89 in 10.0 mi Calm Calm - N/A   Clear
6:53 AM 70.0 °F - 64.9 °F 84% 29.89 in 10.0 mi East 4.6 mph - N/A   Clear
7:53 AM 71.1 °F - 66.0 °F 84% 29.88 in 10.0 mi SE 6.9 mph - N/A   Clear
8:53 AM 77.0 °F - 66.0 °F 69% 29.87 in 10.0 mi SSE 10.4 mph - N/A   Clear
9:53 AM 82.9 °F 85.4 °F 66.9 °F 58% 29.86 in 10.0 mi SW 11.5 mph - N/A   Clear
10:53 AM 90.0 °F 90.6 °F 63.0 °F 40% 29.84 in 10.0 mi SSW 12.7 mph - N/A   Clear
11:53 AM 96.1 °F 96.4 °F 61.0 °F 31% 29.83 in 10.0 mi SW 13.8 mph - N/A   Clear
12:53 PM 97.0 °F 96.5 °F 59.0 °F 28% 29.82 in 10.0 mi WSW 16.1 mph 27.6 mph N/A   Clear
1:53 PM 100.0 °F 98.8 °F 55.9 °F 23% 29.80 in 10.0 mi SW 17.3 mph 23.0 mph N/A   Clear
2:53 PM 100.9 °F 99.1 °F 54.0 °F 21% 29.78 in 10.0 mi SW 13.8 mph 20.7 mph N/A   Clear
3:53 PM 100.9 °F 99.1 °F 54.0 °F 21% 29.77 in 10.0 mi SW 12.7 mph 21.9 mph N/A   Clear
4:53 PM 100.0 °F 98.3 °F 55.0 °F 22% 29.74 in 10.0 mi South 16.1 mph 26.5 mph N/A   Clear
5:53 PM 99.0 °F 96.5 °F 53.1 °F 21% 29.73 in 10.0 mi South 17.3 mph - N/A   Clear
6:53 PM 99.0 °F - 50.0 °F 19% 29.74 in 10.0 mi SSW 17.3 mph 21.9 mph N/A   Clear
7:27 PM 82.9 °F 82.1 °F 55.9 °F 39% 29.88 in 10.0 mi North 27.6 mph 41.4 mph N/A   Scattered Clouds
7:39 PM 79.0 °F - 51.1 °F 38% 29.88 in 10.0 mi North 15.0 mph 34.5 mph N/A   Partly Cloudy
7:53 PM 82.0 °F - 52.0 °F 35% 29.81 in 10.0 mi NNW 23.0 mph 36.8 mph N/A   Partly Cloudy
8:53 PM 86.0 °F - 50.0 °F 29% 29.77 in 10.0 mi NE 17.3 mph 21.9 mph N/A   Clear
9:53 PM 82.9 °F - 48.9 °F 31% 29.78 in 10.0 mi SE 9.2 mph - N/A   Clear
11:53 PM 81.0 °F 80.8 °F 55.9 °F 42% 29.81 in 10.0 mi SSE 13.8 mph - N/A   Clear